Location: Arleux
(50.3632°N, 2.8721°E)
Time: 11:47:59
(UTC+00:00)

NOAA 6 - Pass Details

Date: 15 December 2019
Orbit: 773 x 787 km, 98.7° (Epoch: 27 January)

Event Time Altitude Azimuth Distance (km) Brightness Sun altitude
Rises 05:29:39 0° 16° (NNE) 3,264 7.3 -19.8°
Reaches altitude 10° 05:31:59 10° 18° (NNE) 2,333 6.6 -19.5°
Maximum altitude 05:37:07 74° 104° (ESE) 811 4.2 -18.7°
Drops below altitude 10° 05:42:14 10° 189° (S) 2,322 6.6 -17.9°
Sets 05:44:33 0° 192° (SSW) 3,248 7.3 -17.5°
